Home > Weather > Hof (Saale) > Past weeks

Flag for Germany Past Weather in Hof (Saale), Bavaria, Germany — Yesterday and Last 2 Weeks

Now
70 °F

Passing clouds.


Feels Like: 70 °F
Forecast: 56 / 75 °F
Wind: 9 mph from West

Location: Hof Airport

Current Time: Jun 30, 2016 at 7:43:26 PM

Latest Report: Jun 30, 2016 at 6:50 PM


Visibility: N/A

Pressure: N/A

Humidity: 57%

Dew Point: 54 °F

Location of Hof (Saale)Location

Past Weather in Hof (Saale) — Graph

°F

Hof (Saale) Temperature Yesterday

Maximum temperature yesterday: 72 °F (at 3:50 PM)
Minimum temperature yesterday: 59 °F (at 6:50 AM)
Average temperature yesterday: 66 °F

High & Low Weather Summary for the Past Weeks

 TemperatureHumidityPressure
High90 °F (Jun 24, 5:20 PM)94% (Jun 17, 6:50 AM)30.30 "Hg (Jun 17, 6:50 AM)
Low50 °F (Jun 16, 6:50 AM)27% (Jun 24, 5:20 PM)29.62 "Hg (Jun 15, 5:20 PM)
Average66 °F65%30.05 "Hg
* Reported Jun 15 5:20 PM — Jun 30 5:50 PM, Hof (Saale), Weather by CustomWeather, © 2016

Note: Actual official high and low records may vary slightly from our data, if they occured in-between our weather recording intervals... More about our weather records

Advertising

Hof (Saale) Weather History for the Previous 24 Hours

Scroll right to see more
 ConditionsComfort  
Time TempWeatherWind HumidityBarometerVisibility
5:50 PM
Thu, Jun 30
68 °FScattered clouds.10 mph60%N/AN/A
5:20 PM70 °FPassing clouds.12 mph60%N/AN/A
4:50 PM66 °FPassing clouds.9 mph68%N/AN/A
4:20 PM70 °FPartly sunny.8 mph64%N/AN/A
3:50 PM68 °FPartly sunny.10 mph64%N/AN/A
3:20 PM72 °FPartly sunny.12 mph57%N/AN/A
2:50 PM70 °FBroken clouds.12 mph60%30.01 "HgN/A
2:20 PM70 °FBroken clouds.9 mph60%30.01 "HgN/A
1:50 PM68 °FScattered clouds.9 mph64%30.01 "HgN/A
1:20 PM66 °FPartly sunny.9 mph68%30.01 "HgN/A
12:50 PM63 °FBroken clouds.10 mph77%30.01 "HgN/A
12:20 PM63 °FPartly sunny.9 mph73%30.04 "HgN/A
11:50 AM63 °FPartly sunny.9 mph73%30.01 "HgN/A
11:20 AM64 °FSunny.13 mph68%30.01 "Hg10 mi
10:50 AM63 °FPartly sunny.12 mph68%30.01 "HgN/A
10:20 AM63 °FPartly sunny.8 mph73%30.01 "HgN/A
9:50 AM63 °FSunny.7 mph73%30.01 "Hg10 mi
9:20 AM61 °FPartly sunny.6 mph77%30.01 "HgN/A
8:50 AM61 °FPartly sunny.5 mph77%29.98 "HgN/A
8:20 AM61 °FBroken clouds.3 mph83%29.98 "HgN/A
7:50 AM61 °FPartly sunny.No wind77%29.98 "HgN/A
7:20 AM59 °FBroken clouds.No wind82%29.98 "HgN/A
6:50 AM55 °FScattered clouds.No wind88%29.98 "HgN/A
6:20 AM54 °FScattered clouds.No wind88%29.98 "HgN/A
7:50 PM
Wed, Jun 29
66 °FSunny.8 mph60%29.98 "Hg10 mi
7:20 PM66 °FPassing clouds.10 mph56%29.95 "HgN/A
Weather by CustomWeather, © 2016

See weather overviewHow to use our weather pages